Orbital Elements at Epoch 2459200.5 (2020-Dec-17.0) TDB
Reference: JPL 19 (heliocentric ecliptic J2000)
Element | Value | Uncertainty (1-sigma) | Units |
e | .08518358140441006 | 5.7131e-08 | |
a | 2.398751214789437 | 1.3287e-08 | au |
q | 2.194416995415493 | 1.3236e-07 | au |
i | 3.661012420675477 | 5.1986e-06 | deg |
node | 151.1073770239046 | 7.4461e-05 | deg |
peri | 79.69830365009115 | 8.0366e-05 | deg |
M | 151.6471042649239 | 2.9454e-05 | deg |
tp | 2458628.879415868403 (2019-May-25.37941587) | 0.00011162 | TDB |
period | 1356.988722500603 3.72 | 1.1275e-05 3.087e-08 | d yr |
n | .2652932880212938 | 2.2043e-09 | deg/d |
Q | 2.60308543416338 | 1.4419e-08 | au |
|
| | Orbit Determination Parameters
Additional Information
|